Time,TemperatureF,DewpointF,PressureIn,WindDirection,WindDirectionDegrees,WindSpeedMPH,WindSpeedGustMPH,Humidity,HourlyPrecipIn,Conditions,Clouds,dailyrainin,SoftwareType,DateUTC
2013-02-25 00:06:00,34.9,31.0,29.93,NNE,20,0.0,-999.0,86,-99.99,,,0.00,weatherlink.com 1.10,2013-02-25 05:06:00,
2013-02-25 00:21:00,34.6,31.0,29.93,NNE,20,0.0,-999.0,87,-99.99,,,0.00,weatherlink.com 1.10,2013-02-25 05:21:00,
2013-02-25 00:36:00,34.3,31.0,29.94,NNE,20,0.0,-999.0,87,-99.99,,,0.00,weatherlink.com 1.10,2013-02-25 05:36:00,
2013-02-25 00:51:00,33.8,31.0,29.95,NNE,20,0.0,-999.0,88,-99.99,,,0.00,weatherlink.com 1.10,2013-02-25 05:51:00,
2013-02-25 01:06:00,33.5,30.0,29.96,NNE,20,0.0,-999.0,88,-99.99,,,0.00,weatherlink.com 1.10,2013-02-25 06:06:00,
2013-02-25 01:21:00,33.2,31.0,29.97,NNE,20,0.0,-999.0,90,-99.99,,,0.00,weatherlink.com 1.10,2013-02-25 06:21:00,
2013-02-25 01:36:00,34.3,31.0,29.97,NNE,18,0.0,-999.0,87,-99.99,,,0.00,weatherlink.com 1.10,2013-02-25 06:36:00,
2013-02-25 01:51:00,35.8,31.0,29.98,NW,313,0.0,-999.0,81,-99.99,,,0.00,weatherlink.com 1.10,2013-02-25 06:51:00,
2013-02-25 02:06:00,37.0,30.0,29.98,NNE,16,0.0,-999.0,75,-99.99,,,0.00,weatherlink.com 1.10,2013-02-25 07:06:00,
2013-02-25 02:21:00,37.6,28.0,29.98,NNE,20,0.0,-999.0,69,-99.99,,,0.00,weatherlink.com 1.10,2013-02-25 07:21:00,
2013-02-25 02:36:00,37.5,27.0,29.99,North,0,4.0,-999.0,67,-99.99,,,0.00,weatherlink.com 1.10,2013-02-25 07:36:00,
2013-02-25 02:51:00,37.0,27.0,29.99,North,359,0.0,-999.0,66,-99.99,,,0.00,weatherlink.com 1.10,2013-02-25 07:51:00,
2013-02-25 03:06:00,36.3,26.0,29.99,North,357,0.0,-999.0,67,-99.99,,,0.00,weatherlink.com 1.10,2013-02-25 08:06:00,
2013-02-25 03:21:00,36.0,26.0,29.99,NNE,13,0.0,-999.0,67,-99.99,,,0.00,weatherlink.com 1.10,2013-02-25 08:21:00,
2013-02-25 03:36:00,35.5,25.0,29.98,NNE,31,0.0,-999.0,67,-99.99,,,0.00,weatherlink.com 1.10,2013-02-25 08:36:00,
2013-02-25 03:51:00,35.0,25.0,29.98,NNE,24,0.0,-999.0,67,-99.99,,,0.00,weatherlink.com 1.10,2013-02-25 08:51:00,
2013-02-25 04:06:00,34.7,24.0,29.99,North,359,0.0,-999.0,66,-99.99,,,0.00,weatherlink.com 1.10,2013-02-25 09:06:00,
2013-02-25 04:21:00,34.6,24.0,30.00,NW,306,0.0,-999.0,66,-99.99,,,0.00,weatherlink.com 1.10,2013-02-25 09:21:00,
2013-02-25 04:36:00,34.3,24.0,30.01,NNE,28,0.0,-999.0,66,-99.99,,,0.00,weatherlink.com 1.10,2013-02-25 09:36:00,
2013-02-25 04:51:00,34.0,24.0,30.02,NNE,25,0.0,-999.0,67,-99.99,,,0.00,weatherlink.com 1.10,2013-02-25 09:51:00,
2013-02-25 05:06:00,33.5,24.0,30.03,NNE,23,0.0,-999.0,69,-99.99,,,0.00,weatherlink.com 1.10,2013-02-25 10:06:00,
2013-02-25 05:21:00,33.4,24.0,30.03,NNE,23,0.0,-999.0,69,-99.99,,,0.00,weatherlink.com 1.10,2013-02-25 10:21:00,
2013-02-25 05:36:00,33.1,24.0,30.03,NNE,25,0.0,-999.0,69,-99.99,,,0.00,weatherlink.com 1.10,2013-02-25 10:36:00,
2013-02-25 05:51:00,32.9,24.0,30.03,NNE,24,0.0,-999.0,70,-99.99,,,0.00,weatherlink.com 1.10,2013-02-25 10:51:00,
2013-02-25 06:06:00,32.7,24.0,30.04,NNE,27,0.0,-999.0,69,-99.99,,,0.00,weatherlink.com 1.10,2013-02-25 11:06:00,
2013-02-25 06:21:00,32.7,23.0,30.05,North,0,0.0,-999.0,67,-99.99,,,0.00,weatherlink.com 1.10,2013-02-25 11:21:00,
2013-02-25 06:36:00,32.7,22.0,30.06,North,359,0.0,-999.0,64,-99.99,,,0.00,weatherlink.com 1.10,2013-02-25 11:36:00,
2013-02-25 06:51:00,32.5,22.0,30.06,North,356,0.0,-999.0,65,-99.99,,,0.00,weatherlink.com 1.10,2013-02-25 11:51:00,
2013-02-25 07:06:00,32.4,22.0,30.06,North,352,0.0,-999.0,66,-99.99,,,0.00,weatherlink.com 1.10,2013-02-25 12:06:00,
2013-02-25 07:21:00,32.2,22.0,30.06,North,0,0.0,-999.0,66,-99.99,,,0.00,weatherlink.com 1.10,2013-02-25 12:21:00,
2013-02-25 07:36:00,32.2,22.0,30.06,North,359,0.0,-999.0,67,-99.99,,,0.00,weatherlink.com 1.10,2013-02-25 12:36:00,
2013-02-25 07:51:00,32.4,22.0,30.07,WNW,282,0.0,-999.0,65,-99.99,,,0.00,weatherlink.com 1.10,2013-02-25 12:51:00,
2013-02-25 08:06:00,32.7,22.0,30.08,NE,51,0.0,-999.0,64,-99.99,,,0.00,weatherlink.com 1.10,2013-02-25 13:06:00,
2013-02-25 08:21:00,32.9,21.0,30.09,North,3,0.0,-999.0,62,-99.99,,,0.00,weatherlink.com 1.10,2013-02-25 13:21:00,
2013-02-25 08:37:00,33.4,21.0,30.11,North,357,0.0,-999.0,61,-99.99,,,0.00,weatherlink.com 1.10,2013-02-25 13:37:00,
2013-02-25 08:52:00,33.7,20.0,30.11,North,0,0.0,-999.0,58,-99.99,,,0.00,weatherlink.com 1.10,2013-02-25 13:52:00,
2013-02-25 09:07:00,34.4,20.0,30.11,NE,41,0.0,-999.0,57,-99.99,,,0.00,weatherlink.com 1.10,2013-02-25 14:07:00,
2013-02-25 09:22:00,35.0,20.0,30.11,NNW,344,0.0,-999.0,55,-99.99,,,0.00,weatherlink.com 1.10,2013-02-25 14:22:00,
2013-02-25 09:37:00,35.9,21.0,30.11,NW,308,0.0,-999.0,56,-99.99,,,0.00,weatherlink.com 1.10,2013-02-25 14:37:00,
2013-02-25 09:52:00,35.9,21.0,30.12,North,359,0.0,-999.0,54,-99.99,,,0.00,weatherlink.com 1.10,2013-02-25 14:52:00,
2013-02-25 10:07:00,36.5,20.0,30.12,East,93,0.0,-999.0,52,-99.99,,,0.00,weatherlink.com 1.10,2013-02-25 15:07:00,
2013-02-25 10:22:00,37.3,21.0,30.12,North,357,0.0,-999.0,53,-99.99,,,0.00,weatherlink.com 1.10,2013-02-25 15:22:00,
2013-02-25 10:37:00,37.8,21.0,30.13,ENE,62,0.0,-999.0,51,-99.99,,,0.00,weatherlink.com 1.10,2013-02-25 15:37:00,
2013-02-25 10:52:00,37.6,20.0,30.12,North,0,0.0,-999.0,50,-99.99,,,0.00,weatherlink.com 1.10,2013-02-25 15:52:00,
2013-02-25 11:07:00,38.8,21.0,30.11,NNE,14,0.0,-999.0,49,-99.99,,,0.00,weatherlink.com 1.10,2013-02-25 16:07:00,
2013-02-25 11:22:00,38.3,20.0,30.11,North,6,0.0,-999.0,47,-99.99,,,0.00,weatherlink.com 1.10,2013-02-25 16:22:00,
2013-02-25 11:37:00,39.3,21.0,30.10,NNW,342,0.0,-999.0,48,-99.99,,,0.00,weatherlink.com 1.10,2013-02-25 16:37:00,
2013-02-25 11:52:00,39.3,20.0,30.11,North,0,0.0,-999.0,46,-99.99,,,0.00,weatherlink.com 1.10,2013-02-25 16:52:00,
2013-02-25 12:07:00,39.6,21.0,30.09,East,89,0.0,-999.0,47,-99.99,,,0.00,weatherlink.com 1.10,2013-02-25 17:07:00,
2013-02-25 12:22:00,40.3,21.0,30.09,North,0,0.0,-999.0,47,-99.99,,,0.00,weatherlink.com 1.10,2013-02-25 17:22:00,
2013-02-25 12:39:00,41.1,22.0,30.09,NE,42,0.0,-999.0,47,-99.99,,,0.00,weatherlink.com 1.10,2013-02-25 17:39:00,
2013-02-25 12:52:00,41.3,21.0,30.07,NE,48,1.0,-999.0,45,-99.99,,,0.00,weatherlink.com 1.10,2013-02-25 17:52:00,
2013-02-25 13:07:00,41.2,22.0,30.07,ENE,59,0.0,-999.0,46,-99.99,,,0.00,weatherlink.com 1.10,2013-02-25 18:07:00,
2013-02-25 13:22:00,41.5,22.0,30.06,NW,318,0.0,-999.0,47,-99.99,,,0.00,weatherlink.com 1.10,2013-02-25 18:22:00,
2013-02-25 13:37:00,41.5,21.0,30.06,East,80,0.0,-999.0,45,-99.99,,,0.00,weatherlink.com 1.10,2013-02-25 18:37:00,
2013-02-25 13:52:00,41.6,22.0,30.07,ENE,66,0.0,-999.0,45,-99.99,,,0.00,weatherlink.com 1.10,2013-02-25 18:52:00,
2013-02-25 14:07:00,42.5,22.0,30.08,ENE,71,0.0,-999.0,44,-99.99,,,0.00,weatherlink.com 1.10,2013-02-25 19:07:00,
2013-02-25 14:22:00,41.6,20.0,30.07,NE,41,0.0,-999.0,43,-99.99,,,0.00,weatherlink.com 1.10,2013-02-25 19:22:00,
2013-02-25 14:37:00,41.5,21.0,30.06,NNE,14,0.0,-999.0,44,-99.99,,,0.00,weatherlink.com 1.10,2013-02-25 19:37:00,
2013-02-25 14:52:00,41.5,21.0,30.05,ENE,73,0.0,-999.0,45,-99.99,,,0.00,weatherlink.com 1.10,2013-02-25 19:52:00,
2013-02-25 15:07:00,41.5,22.0,30.05,ENE,72,0.0,-999.0,46,-99.99,,,0.00,weatherlink.com 1.10,2013-02-25 20:07:00,
2013-02-25 15:22:00,41.6,22.0,30.06,ENE,78,0.0,-999.0,46,-99.99,,,0.00,weatherlink.com 1.10,2013-02-25 20:22:00,
2013-02-25 15:37:00,41.8,23.0,30.05,North,354,0.0,-999.0,47,-99.99,,,0.00,weatherlink.com 1.10,2013-02-25 20:37:00,
2013-02-25 15:52:00,41.6,23.0,30.03,ENE,76,0.0,-999.0,47,-99.99,,,0.00,weatherlink.com 1.10,2013-02-25 20:52:00,
2013-02-25 16:07:00,41.3,22.0,30.04,ENE,61,0.0,-999.0,46,-99.99,,,0.00,weatherlink.com 1.10,2013-02-25 21:07:00,
2013-02-25 16:22:00,41.1,22.0,30.04,North,1,0.0,-999.0,47,-99.99,,,0.00,weatherlink.com 1.10,2013-02-25 21:22:00,
2013-02-25 16:37:00,40.8,23.0,30.05,North,3,0.0,-999.0,50,-99.99,,,0.00,weatherlink.com 1.10,2013-02-25 21:37:00,
2013-02-25 16:52:00,40.6,24.0,30.05,North,6,0.0,-999.0,51,-99.99,,,0.00,weatherlink.com 1.10,2013-02-25 21:52:00,
2013-02-25 17:22:00,40.2,23.0,30.04,North,7,0.0,-999.0,51,-99.99,,,0.00,weatherlink.com 1.10,2013-02-25 22:22:00,
2013-02-25 17:37:00,40.1,23.0,30.05,North,6,0.0,-999.0,51,-99.99,,,0.00,weatherlink.com 1.10,2013-02-25 22:37:00,
2013-02-25 18:07:00,39.3,24.0,30.05,North,6,0.0,-999.0,55,-99.99,,,0.00,weatherlink.com 1.10,2013-02-25 23:07:00,
2013-02-25 18:22:00,38.9,24.0,30.06,North,6,0.0,-999.0,55,-99.99,,,0.00,weatherlink.com 1.10,2013-02-25 23:22:00,
2013-02-25 18:37:00,38.5,24.0,30.05,North,6,0.0,-999.0,57,-99.99,,,0.00,weatherlink.com 1.10,2013-02-25 23:37:00,
2013-02-25 18:52:00,37.9,24.0,30.05,North,6,0.0,-999.0,58,-99.99,,,0.00,weatherlink.com 1.10,2013-02-25 23:52:00,
2013-02-25 19:07:00,37.2,25.0,30.06,North,7,0.0,-999.0,61,-99.99,,,0.00,weatherlink.com 1.10,2013-02-26 00:07:00,
2013-02-25 19:22:00,36.8,24.0,30.07,North,7,0.0,-999.0,61,-99.99,,,0.00,weatherlink.com 1.10,2013-02-26 00:22:00,
2013-02-25 19:37:00,36.6,25.0,30.06,North,7,0.0,-999.0,62,-99.99,,,0.00,weatherlink.com 1.10,2013-02-26 00:37:00,
2013-02-25 19:52:00,35.5,24.0,30.07,North,7,0.0,-999.0,64,-99.99,,,0.00,weatherlink.com 1.10,2013-02-26 00:52:00,
2013-02-25 20:07:00,35.0,24.0,30.07,North,7,0.0,-999.0,65,-99.99,,,0.00,weatherlink.com 1.10,2013-02-26 01:07:00,
2013-02-25 20:22:00,34.4,25.0,30.07,North,7,0.0,-999.0,68,-99.99,,,0.00,weatherlink.com 1.10,2013-02-26 01:22:00,
2013-02-25 20:37:00,33.8,24.0,30.07,North,7,0.0,-999.0,68,-99.99,,,0.00,weatherlink.com 1.10,2013-02-26 01:37:00,
2013-02-25 20:52:00,33.4,24.0,30.07,North,7,0.0,-999.0,69,-99.99,,,0.00,weatherlink.com 1.10,2013-02-26 01:52:00,
2013-02-25 21:07:00,33.1,24.0,30.07,North,7,0.0,-999.0,70,-99.99,,,0.00,weatherlink.com 1.10,2013-02-26 02:07:00,
2013-02-25 21:22:00,32.7,25.0,30.07,North,7,0.0,-999.0,72,-99.99,,,0.00,weatherlink.com 1.10,2013-02-26 02:22:00,
2013-02-25 21:37:00,32.2,24.0,30.07,North,7,0.0,-999.0,73,-99.99,,,0.00,weatherlink.com 1.10,2013-02-26 02:37:00,
2013-02-25 21:52:00,31.9,25.0,30.07,North,7,0.0,-999.0,74,-99.99,,,0.00,weatherlink.com 1.10,2013-02-26 02:52:00,
2013-02-25 22:07:00,31.9,25.0,30.06,North,7,0.0,-999.0,75,-99.99,,,0.00,weatherlink.com 1.10,2013-02-26 03:07:00,
2013-02-25 22:22:00,31.8,24.0,30.06,North,7,0.0,-999.0,74,-99.99,,,0.00,weatherlink.com 1.10,2013-02-26 03:22:00,
2013-02-25 22:37:00,31.8,25.0,30.06,North,7,0.0,-999.0,75,-99.99,,,0.00,weatherlink.com 1.10,2013-02-26 03:37:00,
2013-02-25 22:52:00,31.8,25.0,30.05,North,7,0.0,-999.0,75,-99.99,,,0.00,weatherlink.com 1.10,2013-02-26 03:52:00,
2013-02-25 23:07:00,32.5,25.0,30.04,North,7,0.0,-999.0,73,-99.99,,,0.00,weatherlink.com 1.10,2013-02-26 04:07:00,
2013-02-25 23:22:00,33.2,25.0,30.04,North,7,0.0,-999.0,72,-99.99,,,0.00,weatherlink.com 1.10,2013-02-26 04:22:00,
2013-02-25 23:37:00,34.1,25.0,30.03,North,3,0.0,-999.0,70,-99.99,,,0.00,weatherlink.com 1.10,2013-02-26 04:37:00,
2013-02-25 23:52:00,34.9,25.0,30.04,North,7,0.0,-999.0,68,-99.99,,,0.00,weatherlink.com 1.10,2013-02-26 04:52:00,